Location: Apthorp Dam
(44.3084°N, 71.7462°W)
Time: 02:34:11
(UTC+00:00)

Tiangong - Pass Details

Date: 23 December 2025
Orbit: 378 x 393 km, 41.5° (Epoch: 19 January)

Event Time Altitude Azimuth Distance (km) Brightness Sun altitude
Rises 22:17:28 0° 212° (SSW) 2,253 2.7 -11.2°
Reaches altitude 10° 22:20:15 10° 185° (S) 1,398 1.1 -11.7°
Maximum altitude 22:21:59 14° 152° (SSE) 1,187 0.3 -12.0°
Enters shadow 22:23:35 10° 120° (ESE) 1,371 0.3 -12.3°
